haerbin , China , ASIA

  • Sunday
    February 23

      Cloudy

      9 °F

      West

       

  • Monday
    February 24

    Cloudy  Sunny

    28 °F  3 °F

    West  Northwest

    3~4L    

  • Tuesday
    February 25

    Cloudy  Cloudy

    28 °F  5 °F

    No wind  North

        

  • Wednesday
    February 26

    Sunny  Sunny

    27 °F  7 °F

    North  Northwest

        

  • Thursday
    February 27

    Sunny  Cloudy

    28 °F  9 °F

    North  South

        

  • Friday
    February 28

    Light snow  Light snow

    30 °F  16 °F

    Southeast  South

    3~4L    

  • Saturday
    February 29

    Cloudy  Cloudy

    32 °F  12 °F

    Northwest  North

        

Date   Weather Temperature Humidity Total_rain Visibility Wind
23:00 Cloudy 19°F 81.2% 0mm 999.9km Northwest  3.7m/s
02:00 Cloudy 20°F 82.8% 0mm 999.9km Northwest  3.6m/s
05:00 Cloudy 12°F 84.4% 0mm 999.9km Northwest  2.9m/s
08:00 Cloudy 9°F 81.8% 0mm 999.9km Northwest  3.0m/s
11:00 Cloudy 24°F 72.7% 0mm 999.9km Northwest  3.8m/s
14:00 Cloudy 28°F 68.3% 0mm 999.9km Northwest  3.6m/s
17:00 Cloudy 25°F 73.7% 0mm 999.9km Northwest  1.8m/s
20:00 Cloudy 18°F 61.3% 0mm 999.9km Northwest  1.8m/s
23:00 Sunny 11°F 82.2% 0mm 999.9km Northwest  2.0m/s
02:00 Sunny 9°F 84.6% 0mm 999.9km Northwest  1.8m/s
05:00 Sunny 4°F 86.2% 0mm 999.9km Northeast  1.9m/s
08:00 Sunny 11°F 81.8% 0mm 999.9km Northeast  2.0m/s
11:00 Cloudy 21°F 64.9% 0mm 999.9km Northeast  2.9m/s
14:00 Cloudy 28°F 64% 0mm 999.9km Northeast  2.7m/s
17:00 Cloudy 24°F 66.4% 0mm 999.9km Northwest  2.1m/s
20:00 Cloudy 18°F 55.6% 0mm 999.9km Northeast  1.7m/s
23:00 Cloudy 11°F 78.5% 0mm 999.9km Northeast  1.9m/s
02:00 Cloudy 8°F 80.8% 0mm 999.9km Northwest  1.8m/s
05:00 Cloudy 5°F 76.9% 0mm 999.9km Northwest  1.5m/s
08:00 Cloudy 14°F 75.9% 0mm 999.9km Northwest  1.8m/s
11:00 Sunny 20°F 66.2% 0mm 999.9km Northwest  3.0m/s
14:00 Sunny 26°F 62.7% 0mm 999.9km Northwest  3.1m/s
17:00 Sunny 22°F 69.8% 0mm 999.9km Northwest  2.0m/s
20:00 Sunny 17°F 57.2% 0mm 999.9km Northwest  1.9m/s
23:00 Sunny 13°F 83.4% 0mm 999.9km Northwest  2.9m/s
02:00 Sunny 11°F 81.7% 0mm 999.9km Northwest  2.8m/s
05:00 Sunny 7°F 79.3% 0mm 999.9km Northwest  2.8m/s
08:00 Sunny 13°F 75.6% 0mm 999.9km Northwest  2.1m/s
11:00 Sunny 20°F 66.9% 0mm 999.9km Northwest  2.2m/s
14:00 Sunny 24°F 66.5% 0mm 999.9km Northwest  3.1m/s
17:00 Sunny 28°F 72.9% 0mm 999.9km Northwest  2.9m/s
20:00 Sunny 20°F 53.3% 0mm 999.9km Southwest  2.5m/s
23:00 Cloudy 15°F 74.6% 0mm 999.9km Southwest  2.1m/s
02:00 Cloudy 13°F 73.6% 0mm 999.9km Southwest  1.9m/s
05:00 Cloudy 9°F 71.7% 0mm 999.9km Southwest  1.5m/s
08:00 Cloudy 18°F 71.5% 0mm 999.9km Southwest  2.1m/s
11:00 Moderate snow 23°F 65.4% 0.6mm 999.9km Southwest  1.1m/s
14:00 Sleet 9°F 58% 0.6mm 999.9km Southwest  0.9m/s
17:00 Moderate snow 25°F 67% 0.6mm 999.9km Northeast  1.4m/s
20:00 Moderate snow 20°F 51.4% 0.6mm 999.9km Northeast  2.0m/s
23:00 Moderate snow 17°F 79% 0.6mm 999.9km Northeast  2.1m/s
02:00 Moderate snow 17°F 78.2% 0.6mm 999.9km Southeast  2.6m/s
05:00 Moderate snow 16°F 78.1% 0.6mm 999.9km Northeast  2.2m/s
08:00 Moderate snow 24°F 78.1% 0.6mm 999.9km Southeast  2.8m/s
11:00 Cloudy 29°F 69.1% 0mm 999.9km Southeast  1.8m/s
14:00 Cloudy 32°F 69.2% 0mm 999.9km Northeast  3.0m/s
17:00 Cloudy 30°F 62.4% 0mm 999.9km Northeast  1.3m/s
20:00 Cloudy 27°F 58.9% 0mm 999.9km Northeast  3.6m/s
23:00 Cloudy 17°F 75.7% 0mm 999.9km Northeast  1.3m/s
02:00 Cloudy 14°F 75.7% 0mm 999.9km Northeast  3.6m/s
05:00 Cloudy 13°F 75.8% 0mm 999.9km Northeast  1.6m/s